World > North America > United States > Wyoming > Auburn  

Auburn, WY Hourly Weather Updates

Feedback E-mail the Weather

Quick Clicks

Auburn, WY Weather Maps

°F °C°F °C
Auburn Weather Map
UTC Time: 4/19/2024, 14:58
Your Time:

Auburn, WY Regional Weather

Expires:202404191500;;016965
ASUS45 KCYS 191410
RWRWY 

WYOMING REGIONAL WEATHER ROUNDUP
NATIONAL WEATHER SERVICE CHEYENNE WY
800 AM MDT FRI APR 19 2024

NOTE:  "FAIR" INDICATES FEW OR NO CLOUDS BELOW 12,000 FEET
WITH NO SIGNIFICANT WEATHER AND/OR OBSTRUCTIONS TO VISIBILITY.


WYZ014>020-022>026-101>103-191500-
...CENTRAL WYOMING...
  
CITY           SKY/WX    TMP DP  RH WIND       PRES   REMARKS
BIG PINEY      SUNNY     25  13  60 W8        30.17R WCI  16          
PINEDALE       SUNNY     27  14  59 NW7       30.17R WCI  19          
DUBOIS         FLURRIES  23  16  74 E8        30.18R WCI  14          
LANDER         CLOUDY    32  18  56 E5        30.24R WCI  27          
RIVERTON       CLOUDY    29  14  53 NE10      30.25R WCI  20          
CASPER         CLOUDY    26  12  55 NE17      30.27R WCI  13          
DOUGLAS        CLOUDY    29  15  56 N12       30.28R WCI  19          

$$

SKY/WX - Weather  TMP - Temperature  DP - Dew Point  RH - Humidity
WIND - Wind Direction/Speed PRES - Barometric Pressure VSB - Visibility
WCI - Wind Chill Index E13G22 Wind - East Wind 13 mph/Gusts of 22 mph

Trending Headlines

Trending Entertainment Headlines

Auburn Radar Loop

Use the map search tool if you want to place a location marker on the radar map...

Auburn Quick Facts

National Two Day Weather Forecast


E-mail the Auburn Weather Forecast

Voice your opinion or tell us about page issues...